Location: Mococo
(38.0255°N, 122.1161°W)
Time: 06:46:59
(UTC+00:00)

SJ-11-01 - Pass Details

Date: 13 February 2026
Orbit: 674 x 689 km, 98.0° (Epoch: 9 March)

Event Time Altitude Azimuth Distance (km) Brightness Sun altitude
Rises 12:45:08 0° 13° (NNE) 3,040 7.8 -27.2°
Reaches altitude 10° 12:47:22 10° 14° (NNE) 2,123 7.0 -26.8°
Maximum altitude 12:52:02 83° 102° (ESE) 691 4.2 -25.9°
Enters shadow 12:52:11 81° 142° (SE) 694 4.2 -25.8°
